Time,TemperatureF,DewpointF,PressureIn,WindDirection,WindDirectionDegrees,WindSpeedMPH,WindSpeedGustMPH,Humidity,HourlyPrecipIn,Conditions,Clouds,dailyrainin,SoftwareType,DateUTC
2013-09-20 00:02:00,73.5,69.1,29.97,SSE,158,0.0,0.0,86,0.00,,---,0.00,VWS V14.01,2013-09-20 05:02:00,
2013-09-20 00:06:00,73.5,68.7,29.97,SSE,158,0.0,0.0,85,0.00,,---,0.00,VWS V14.01,2013-09-20 05:06:00,
2013-09-20 00:11:00,73.3,68.9,29.97,SSE,158,0.0,0.0,86,0.00,,---,0.00,VWS V14.01,2013-09-20 05:11:00,
2013-09-20 00:17:00,73.3,68.9,29.97,SSE,158,0.0,0.0,86,0.00,,---,0.00,VWS V14.01,2013-09-20 05:17:00,
2013-09-20 00:22:00,73.1,69.0,29.97,SSE,158,0.0,0.0,87,0.00,,---,0.00,VWS V14.01,2013-09-20 05:22:00,
2013-09-20 00:27:00,73.1,68.7,29.97,SSE,158,0.0,0.0,86,0.00,,---,0.00,VWS V14.01,2013-09-20 05:27:00,
2013-09-20 00:32:00,73.0,68.9,29.97,SSE,158,0.0,0.0,87,0.00,,---,0.00,VWS V14.01,2013-09-20 05:32:00,
2013-09-20 00:37:00,73.0,68.9,29.97,SSE,158,0.0,0.0,87,0.00,,---,0.00,VWS V14.01,2013-09-20 05:37:00,
2013-09-20 00:42:00,73.0,68.9,29.97,SSE,158,0.0,0.0,87,0.00,,---,0.00,VWS V14.01,2013-09-20 05:42:00,
2013-09-20 00:47:00,72.8,68.7,29.97,SSE,158,0.0,0.0,87,0.00,,---,0.00,VWS V14.01,2013-09-20 05:47:00,
2013-09-20 00:52:00,72.8,68.7,29.97,SSE,158,0.0,0.0,87,0.00,,---,0.00,VWS V14.01,2013-09-20 05:52:00,
2013-09-20 00:57:00,72.8,68.7,29.97,SSE,158,0.0,0.0,87,0.00,,---,0.00,VWS V14.01,2013-09-20 05:57:00,
2013-09-20 01:02:00,72.6,68.5,29.97,SSE,158,0.0,0.0,87,0.00,,---,0.00,VWS V14.01,2013-09-20 06:02:00,
2013-09-20 01:07:00,72.6,68.5,29.97,SSE,158,0.0,0.0,87,0.00,,---,0.00,VWS V14.01,2013-09-20 06:07:00,
2013-09-20 01:12:00,72.4,68.7,29.97,SSE,158,0.0,0.0,88,0.00,,---,0.00,VWS V14.01,2013-09-20 06:12:00,
2013-09-20 01:17:00,72.4,68.7,29.97,SSE,158,0.0,0.0,88,0.00,,---,0.00,VWS V14.01,2013-09-20 06:17:00,
2013-09-20 01:22:00,72.4,68.7,29.97,SSE,158,0.0,0.0,88,0.00,,---,0.00,VWS V14.01,2013-09-20 06:22:00,
2013-09-20 01:27:00,72.2,68.5,29.97,SSE,158,0.0,0.0,88,0.00,,---,0.00,VWS V14.01,2013-09-20 06:27:00,
2013-09-20 01:32:00,72.2,68.8,29.97,SSE,158,0.0,0.0,89,0.00,,---,0.00,VWS V14.01,2013-09-20 06:32:00,
2013-09-20 01:37:00,72.1,68.3,29.97,SSE,158,0.0,0.0,88,0.00,,---,0.00,VWS V14.01,2013-09-20 06:37:00,
2013-09-20 01:42:00,72.1,68.6,29.97,SSE,158,0.0,0.0,89,0.00,,---,0.00,VWS V14.01,2013-09-20 06:42:00,
2013-09-20 01:47:00,72.1,68.6,29.97,SSE,158,0.0,0.0,89,0.00,,---,0.00,VWS V14.01,2013-09-20 06:47:00,
2013-09-20 01:52:00,72.1,68.6,29.97,SSE,158,0.0,0.0,89,0.00,,---,0.00,VWS V14.01,2013-09-20 06:52:00,
2013-09-20 01:57:00,71.9,68.5,29.97,SSE,158,0.0,0.0,89,0.00,,---,0.00,VWS V14.01,2013-09-20 06:57:00,
2013-09-20 02:02:00,71.9,68.5,29.97,SSE,158,0.0,0.0,89,0.00,,---,0.00,VWS V14.01,2013-09-20 07:02:00,
2013-09-20 02:07:00,71.9,68.8,29.97,SSE,158,0.0,0.0,90,0.00,,---,0.00,VWS V14.01,2013-09-20 07:07:00,
2013-09-20 02:12:00,71.9,68.8,29.94,SSE,158,0.0,0.0,90,0.00,,---,0.00,VWS V14.01,2013-09-20 07:12:00,
2013-09-20 02:17:00,71.9,68.8,29.94,SSE,158,0.0,0.0,90,0.00,,---,0.00,VWS V14.01,2013-09-20 07:17:00,
2013-09-20 02:22:00,71.9,68.5,29.94,SSE,158,0.0,0.0,89,0.00,,---,0.00,VWS V14.01,2013-09-20 07:22:00,
2013-09-20 02:27:00,71.7,68.6,29.94,SSE,158,0.0,0.0,90,0.00,,---,0.00,VWS V14.01,2013-09-20 07:27:00,
2013-09-20 02:32:00,71.7,68.6,29.94,SSE,158,0.0,0.0,90,0.00,,---,0.00,VWS V14.01,2013-09-20 07:32:00,
2013-09-20 02:38:00,71.9,68.8,29.94,SSE,158,0.0,0.0,90,0.00,,---,0.00,VWS V14.01,2013-09-20 07:38:00,
2013-09-20 02:42:00,71.7,68.6,29.94,SSE,158,0.0,0.0,90,0.00,,---,0.00,VWS V14.01,2013-09-20 07:42:00,
2013-09-20 02:47:00,71.7,68.6,29.94,SSE,158,0.0,0.0,90,0.00,,---,0.00,VWS V14.01,2013-09-20 07:47:00,
2013-09-20 02:53:00,71.7,68.6,29.94,SSE,158,0.0,0.0,90,0.00,,---,0.00,VWS V14.01,2013-09-20 07:53:00,
2013-09-20 02:58:00,71.7,68.6,29.94,SSE,158,0.0,0.0,90,0.00,,---,0.00,VWS V14.01,2013-09-20 07:58:00,
2013-09-20 03:03:00,71.5,68.4,29.94,SSE,158,0.0,0.0,90,0.00,,---,0.00,VWS V14.01,2013-09-20 08:03:00,
2013-09-20 03:08:00,71.5,68.4,29.94,West,270,0.0,0.0,90,0.00,,---,0.00,VWS V14.01,2013-09-20 08:08:00,
2013-09-20 03:13:00,71.5,68.4,29.94,West,270,0.0,0.0,90,0.00,,---,0.00,VWS V14.01,2013-09-20 08:13:00,
2013-09-20 03:18:00,71.5,68.8,29.94,West,270,0.0,0.0,91,0.00,,---,0.00,VWS V14.01,2013-09-20 08:18:00,
2013-09-20 03:23:00,71.7,68.9,29.94,West,270,0.0,0.0,91,0.00,,---,0.00,VWS V14.01,2013-09-20 08:23:00,
2013-09-20 03:28:00,71.9,69.1,29.94,West,270,0.0,0.0,91,0.00,,---,0.00,VWS V14.01,2013-09-20 08:28:00,
2013-09-20 03:33:00,71.9,69.1,29.94,West,270,0.0,0.0,91,0.00,,---,0.00,VWS V14.01,2013-09-20 08:33:00,
2013-09-20 03:38:00,71.9,69.4,29.94,West,270,0.0,0.0,92,0.00,,---,0.00,VWS V14.01,2013-09-20 08:38:00,
2013-09-20 03:43:00,71.9,69.4,29.94,West,270,0.0,0.0,92,0.00,,---,0.00,VWS V14.01,2013-09-20 08:43:00,
2013-09-20 03:48:00,71.9,69.4,29.94,West,270,0.0,0.0,92,0.00,,---,0.00,VWS V14.01,2013-09-20 08:48:00,
2013-09-20 03:53:00,71.9,69.4,29.94,West,270,0.0,0.0,92,0.00,,---,0.00,VWS V14.01,2013-09-20 08:53:00,
2013-09-20 03:58:00,71.9,69.1,29.94,WSW,248,0.0,0.0,91,0.00,,---,0.00,VWS V14.01,2013-09-20 08:58:00,
2013-09-20 04:03:00,71.9,69.1,29.94,WSW,248,0.0,0.0,91,0.00,,---,0.00,VWS V14.01,2013-09-20 09:03:00,
2013-09-20 04:08:00,71.9,69.1,29.94,WSW,248,0.0,0.0,91,0.00,,---,0.00,VWS V14.01,2013-09-20 09:08:00,
2013-09-20 04:13:00,71.9,69.1,29.94,WSW,248,0.0,0.0,91,0.00,,---,0.00,VWS V14.01,2013-09-20 09:13:00,
2013-09-20 04:18:00,71.7,69.3,29.94,WSW,248,0.0,0.0,92,0.00,,---,0.00,VWS V14.01,2013-09-20 09:18:00,
2013-09-20 04:23:00,71.7,69.3,29.94,WSW,248,0.0,0.0,92,0.00,,---,0.00,VWS V14.01,2013-09-20 09:23:00,
2013-09-20 04:28:00,71.7,68.9,29.94,WSW,248,0.0,0.0,91,0.00,,---,0.00,VWS V14.01,2013-09-20 09:28:00,
2013-09-20 04:33:00,71.7,69.3,29.94,WSW,248,0.0,0.0,92,0.00,,---,0.00,VWS V14.01,2013-09-20 09:33:00,
2013-09-20 04:38:00,71.7,69.3,29.94,WSW,248,0.0,0.0,92,0.00,,---,0.00,VWS V14.01,2013-09-20 09:38:00,
2013-09-20 04:43:00,71.7,69.3,29.94,WSW,248,0.0,0.0,92,0.00,,---,0.00,VWS V14.01,2013-09-20 09:43:00,
2013-09-20 04:48:00,71.7,68.9,29.94,WSW,248,0.0,0.0,91,0.00,,---,0.00,VWS V14.01,2013-09-20 09:48:00,
2013-09-20 04:53:00,71.5,68.8,29.94,WSW,248,0.0,0.0,91,0.00,,---,0.00,VWS V14.01,2013-09-20 09:53:00,
2013-09-20 04:58:00,71.5,68.8,29.94,WSW,248,0.0,0.0,91,0.00,,---,0.00,VWS V14.01,2013-09-20 09:58:00,
2013-09-20 05:03:00,71.7,69.3,29.94,WSW,248,0.0,0.0,92,0.00,,---,0.00,VWS V14.01,2013-09-20 10:03:00,
2013-09-20 05:08:00,71.7,69.3,29.94,WSW,248,0.0,0.0,92,0.00,,---,0.00,VWS V14.01,2013-09-20 10:08:00,
2013-09-20 05:13:00,71.7,69.3,29.94,WSW,248,0.0,0.0,92,0.00,,---,0.00,VWS V14.01,2013-09-20 10:13:00,
2013-09-20 05:18:00,71.9,69.4,29.94,WSW,248,0.0,0.0,92,0.00,,---,0.00,VWS V14.01,2013-09-20 10:18:00,
2013-09-20 05:23:00,71.9,69.4,29.94,WSW,248,0.0,0.0,92,0.00,,---,0.00,VWS V14.01,2013-09-20 10:23:00,
2013-09-20 05:28:00,71.9,69.4,29.94,WSW,248,0.0,0.0,92,0.00,,---,0.00,VWS V14.01,2013-09-20 10:28:00,
2013-09-20 05:33:00,71.9,69.4,29.94,WSW,248,0.0,0.0,92,0.00,,---,0.00,VWS V14.01,2013-09-20 10:33:00,
2013-09-20 05:38:00,71.9,69.4,29.94,WSW,248,0.0,0.0,92,0.00,,---,0.00,VWS V14.01,2013-09-20 10:38:00,
2013-09-20 05:43:00,71.9,69.4,29.94,WSW,248,0.0,0.0,92,0.00,,---,0.00,VWS V14.01,2013-09-20 10:43:00,
2013-09-20 05:48:00,71.9,69.4,29.94,SSW,202,1.1,1.6,92,0.00,,---,0.00,VWS V14.01,2013-09-20 10:48:00,
2013-09-20 05:53:00,71.9,69.4,29.94,SSW,202,0.0,0.0,92,0.00,,---,0.00,VWS V14.01,2013-09-20 10:53:00,
2013-09-20 05:58:00,71.9,69.4,29.94,SSW,202,0.0,0.0,92,0.00,,---,0.00,VWS V14.01,2013-09-20 10:58:00,
2013-09-20 06:03:00,71.7,69.3,29.94,SSW,202,0.0,0.0,92,0.00,,---,0.00,VWS V14.01,2013-09-20 11:03:00,
2013-09-20 06:08:00,71.7,69.3,29.94,SSW,202,0.0,0.0,92,0.00,,---,0.00,VWS V14.01,2013-09-20 11:08:00,
2013-09-20 06:13:00,71.7,69.3,29.94,SSW,202,0.0,0.0,92,0.00,,---,0.00,VWS V14.01,2013-09-20 11:13:00,
2013-09-20 06:18:00,71.7,69.6,29.94,SSW,202,0.0,0.0,93,0.00,,---,0.00,VWS V14.01,2013-09-20 11:18:00,
2013-09-20 06:23:00,71.9,69.8,29.91,SSW,202,0.0,0.0,93,0.00,,---,0.00,VWS V14.01,2013-09-20 11:23:00,
2013-09-20 06:28:00,71.9,69.8,29.91,SSW,202,0.0,0.0,93,0.00,,---,0.00,VWS V14.01,2013-09-20 11:28:00,
2013-09-20 06:34:00,71.9,69.8,29.91,SSW,202,0.0,0.0,93,0.00,,---,0.00,VWS V14.01,2013-09-20 11:34:00,
2013-09-20 06:39:00,71.9,69.8,29.91,WNW,292,0.0,0.0,93,0.00,,---,0.00,VWS V14.01,2013-09-20 11:39:00,
2013-09-20 06:44:00,72.1,69.9,29.91,SW,225,0.0,0.0,93,0.00,,---,0.00,VWS V14.01,2013-09-20 11:44:00,
2013-09-20 06:49:00,72.1,69.9,29.91,SSW,202,0.0,0.0,93,0.00,,---,0.00,VWS V14.01,2013-09-20 11:49:00,
2013-09-20 06:54:00,72.1,70.2,29.94,SSW,202,0.0,0.0,94,0.00,,---,0.00,VWS V14.01,2013-09-20 11:54:00,
2013-09-20 06:59:00,72.2,70.4,29.94,SSW,202,0.0,0.0,94,0.00,,---,0.00,VWS V14.01,2013-09-20 11:59:00,
2013-09-20 07:04:00,72.2,70.4,29.94,SSW,202,0.0,0.0,94,0.00,,---,0.00,VWS V14.01,2013-09-20 12:04:00,
2013-09-20 07:09:00,72.4,70.6,29.91,SSE,158,0.0,0.0,94,0.00,,---,0.00,VWS V14.01,2013-09-20 12:09:00,
2013-09-20 07:14:00,72.4,70.6,29.91,SSE,158,0.0,0.0,94,0.00,,---,0.00,VWS V14.01,2013-09-20 12:14:00,
2013-09-20 07:19:00,72.8,71.0,29.91,SSE,158,0.0,0.0,94,0.00,,---,0.00,VWS V14.01,2013-09-20 12:19:00,
2013-09-20 07:24:00,72.8,71.0,29.91,SSE,158,0.0,0.0,94,0.00,,---,0.00,VWS V14.01,2013-09-20 12:24:00,
2013-09-20 07:29:00,73.1,71.3,29.91,SSE,158,0.0,0.0,94,0.00,,---,0.00,VWS V14.01,2013-09-20 12:29:00,
2013-09-20 07:34:00,73.3,71.5,29.91,SSE,158,0.9,0.9,94,0.00,,---,0.00,VWS V14.01,2013-09-20 12:34:00,
2013-09-20 07:39:00,73.7,71.8,29.94,ESE,112,0.0,0.0,94,0.00,,---,0.00,VWS V14.01,2013-09-20 12:39:00,
2013-09-20 07:44:00,73.9,72.0,29.94,SE,135,0.0,0.0,94,0.00,,---,0.00,VWS V14.01,2013-09-20 12:44:00,
2013-09-20 07:49:00,74.0,72.2,29.94,SE,135,0.0,0.0,94,0.00,,---,0.00,VWS V14.01,2013-09-20 12:49:00,
2013-09-20 07:54:00,74.4,72.6,29.94,ESE,112,0.0,2.5,94,0.00,,---,0.00,VWS V14.01,2013-09-20 12:54:00,
2013-09-20 07:59:00,74.8,72.9,29.94,ESE,112,0.0,0.0,94,0.00,,---,0.00,VWS V14.01,2013-09-20 12:59:00,
2013-09-20 08:04:00,74.9,72.8,29.94,ESE,112,0.0,0.0,93,0.00,,---,0.00,VWS V14.01,2013-09-20 13:04:00,
2013-09-20 08:09:00,75.1,73.0,29.91,ESE,112,0.0,0.0,93,0.00,,---,0.00,VWS V14.01,2013-09-20 13:09:00,
2013-09-20 08:14:00,75.5,73.3,29.91,SSE,158,0.0,0.9,93,0.00,,---,0.00,VWS V14.01,2013-09-20 13:14:00,
2013-09-20 08:19:00,75.7,73.5,29.91,SE,135,2.7,3.6,93,0.00,,---,0.00,VWS V14.01,2013-09-20 13:19:00,
2013-09-20 08:24:00,76.0,73.8,29.91,SSE,158,2.7,2.7,93,0.00,,---,0.00,VWS V14.01,2013-09-20 13:24:00,
2013-09-20 08:29:00,76.0,73.5,29.91,SSE,158,1.6,3.4,92,0.00,,---,0.00,VWS V14.01,2013-09-20 13:29:00,
2013-09-20 08:34:00,76.2,73.4,29.91,SSE,158,2.0,2.0,91,0.00,,---,0.00,VWS V14.01,2013-09-20 13:34:00,
2013-09-20 08:39:00,76.4,73.2,29.94,SSE,158,1.1,1.3,90,0.00,,---,0.00,VWS V14.01,2013-09-20 13:39:00,
2013-09-20 08:44:00,76.4,73.2,29.94,SSE,158,0.0,2.2,90,0.00,,---,0.00,VWS V14.01,2013-09-20 13:44:00,
2013-09-20 08:49:00,76.7,73.6,29.94,SE,135,1.1,2.2,90,0.00,,---,0.00,VWS V14.01,2013-09-20 13:49:00,
2013-09-20 08:54:00,76.7,73.6,29.94,SSE,158,0.0,0.0,90,0.00,,---,0.00,VWS V14.01,2013-09-20 13:54:00,
2013-09-20 08:59:00,77.1,73.6,29.94,SE,135,0.9,2.5,89,0.00,,---,0.00,VWS V14.01,2013-09-20 13:59:00,
2013-09-20 09:04:00,77.3,73.8,29.94,SE,135,0.0,1.1,89,0.00,,---,0.00,VWS V14.01,2013-09-20 14:04:00,
2013-09-20 09:09:00,77.6,73.8,29.94,SSE,158,1.6,1.6,88,0.00,,---,0.00,VWS V14.01,2013-09-20 14:09:00,
2013-09-20 09:14:00,77.8,74.0,29.94,WNW,292,0.0,2.2,88,0.00,,---,0.00,VWS V14.01,2013-09-20 14:14:00,
2013-09-20 09:19:00,78.0,73.8,29.94,SSW,202,0.9,1.1,87,0.00,,---,0.00,VWS V14.01,2013-09-20 14:19:00,
2013-09-20 09:24:00,78.2,74.0,29.91,ENE,68,0.0,0.0,87,0.00,,---,0.00,VWS V14.01,2013-09-20 14:24:00,
2013-09-20 09:29:00,78.4,74.2,29.91,ESE,112,0.0,0.0,87,0.00,,---,0.00,VWS V14.01,2013-09-20 14:29:00,
2013-09-20 09:34:00,78.5,74.3,29.91,ENE,68,0.0,0.0,87,0.00,,---,0.00,VWS V14.01,2013-09-20 14:34:00,
2013-09-20 09:39:00,79.1,74.5,29.91,ESE,112,2.9,2.9,86,0.00,,---,0.00,VWS V14.01,2013-09-20 14:39:00,
2013-09-20 09:44:00,79.4,74.9,29.91,ESE,112,0.9,2.9,86,0.00,,---,0.00,VWS V14.01,2013-09-20 14:44:00,
2013-09-20 09:49:00,79.6,74.4,29.91,SSE,158,3.4,3.4,84,0.00,,---,0.00,VWS V14.01,2013-09-20 14:49:00,
2013-09-20 09:54:00,79.6,74.4,29.91,SW,225,1.1,1.1,84,0.00,,---,0.00,VWS V14.01,2013-09-20 14:54:00,
2013-09-20 09:59:00,79.8,73.8,29.91,SSE,158,2.5,2.5,82,0.00,,---,0.00,VWS V14.01,2013-09-20 14:59:00,
2013-09-20 10:04:00,80.0,73.6,29.91,ESE,112,2.0,5.4,81,0.00,,---,0.00,VWS V14.01,2013-09-20 15:04:00,
2013-09-20 10:09:00,80.2,73.8,29.91,SSE,158,0.9,1.3,81,0.00,,---,0.00,VWS V14.01,2013-09-20 15:09:00,
2013-09-20 10:14:00,80.5,73.8,29.91,SSE,158,2.0,2.0,80,0.00,,---,0.00,VWS V14.01,2013-09-20 15:14:00,
2013-09-20 10:19:00,80.7,73.6,29.91,SE,135,2.5,2.5,79,0.00,,---,0.00,VWS V14.01,2013-09-20 15:19:00,
2013-09-20 10:24:00,80.9,73.8,29.91,SSE,158,1.1,2.7,79,0.00,,---,0.00,VWS V14.01,2013-09-20 15:24:00,
2013-09-20 10:29:00,81.2,73.7,29.91,SSE,158,0.9,1.1,78,0.00,,---,0.00,VWS V14.01,2013-09-20 15:29:00,
2013-09-20 10:34:00,81.2,73.3,29.91,SSE,158,3.4,3.4,77,0.00,,---,0.00,VWS V14.01,2013-09-20 15:34:00,
2013-09-20 10:40:00,81.4,73.1,29.91,SSW,202,0.0,0.0,76,0.00,,---,0.00,VWS V14.01,2013-09-20 15:40:00,
2013-09-20 10:45:00,82.0,73.7,29.91,WSW,248,2.7,2.9,76,0.00,,---,0.00,VWS V14.01,2013-09-20 15:45:00,
2013-09-20 10:50:00,82.5,73.8,29.91,SE,135,0.0,0.0,75,0.00,,---,0.00,VWS V14.01,2013-09-20 15:50:00,
2013-09-20 10:55:00,82.9,74.1,29.91,SSE,158,2.0,2.0,75,0.00,,---,0.00,VWS V14.01,2013-09-20 15:55:00,
2013-09-20 11:00:00,83.4,72.2,29.91,SSW,202,1.3,1.3,69,0.00,,---,0.00,VWS V14.01,2013-09-20 16:00:00,
2013-09-20 11:05:00,83.6,72.8,29.91,SE,135,2.0,4.3,70,0.00,,---,0.00,VWS V14.01,2013-09-20 16:05:00,
2013-09-20 11:10:00,83.6,72.3,29.91,SSW,202,2.5,2.5,69,0.00,,---,0.00,VWS V14.01,2013-09-20 16:10:00,
2013-09-20 11:15:00,83.6,71.9,29.91,SSW,202,2.5,3.1,68,0.00,,---,0.00,VWS V14.01,2013-09-20 16:15:00,
2013-09-20 11:20:00,83.6,71.9,29.91,SSW,202,0.9,2.7,68,0.00,,---,0.00,VWS V14.01,2013-09-20 16:20:00,
2013-09-20 11:25:00,84.1,72.9,29.91,ESE,112,2.7,2.7,69,0.00,,---,0.00,VWS V14.01,2013-09-20 16:25:00,
2013-09-20 11:30:00,84.8,72.2,29.91,SSE,158,2.2,2.5,66,0.00,,---,0.00,VWS V14.01,2013-09-20 16:30:00,
2013-09-20 11:35:00,84.7,72.1,29.91,SE,135,0.0,3.1,66,0.00,,---,0.00,VWS V14.01,2013-09-20 16:35:00,
2013-09-20 11:40:00,85.0,72.4,29.91,SE,135,0.0,0.0,66,0.00,,---,0.00,VWS V14.01,2013-09-20 16:40:00,
2013-09-20 11:45:00,85.7,73.1,29.91,SSE,158,1.6,3.8,66,0.00,,---,0.00,VWS V14.01,2013-09-20 16:45:00,
2013-09-20 11:50:00,86.3,72.2,29.91,SSE,158,1.3,3.6,63,0.00,,---,0.00,VWS V14.01,2013-09-20 16:50:00,
2013-09-20 11:55:00,87.2,72.1,29.88,ESE,112,2.5,2.5,61,0.00,,---,0.00,VWS V14.01,2013-09-20 16:55:00,
2013-09-20 12:00:00,87.2,71.6,29.88,WSW,248,2.2,3.6,60,0.00,,---,0.00,VWS V14.01,2013-09-20 17:00:00,
2013-09-20 12:05:00,87.4,72.3,29.88,SSE,158,1.1,2.7,61,0.00,,---,0.00,VWS V14.01,2013-09-20 17:05:00,
2013-09-20 12:10:00,87.9,72.3,29.88,SSE,158,3.4,5.6,60,0.00,,---,0.00,VWS V14.01,2013-09-20 17:10:00,
2013-09-20 12:15:00,88.4,71.8,29.88,SSW,202,0.9,3.1,58,0.00,,---,0.00,VWS V14.01,2013-09-20 17:15:00,
2013-09-20 12:20:00,89.0,72.3,29.88,SSE,158,2.2,3.4,58,0.00,,---,0.00,VWS V14.01,2013-09-20 17:20:00,
2013-09-20 12:25:00,88.6,72.0,29.88,SSW,202,1.1,1.1,58,0.00,,---,0.00,VWS V14.01,2013-09-20 17:25:00,
2013-09-20 12:30:00,88.3,71.1,29.88,WSW,248,1.6,2.5,57,0.00,,---,0.00,VWS V14.01,2013-09-20 17:30:00,
2013-09-20 12:35:00,88.3,70.6,29.88,ENE,68,1.1,2.0,56,0.00,,---,0.00,VWS V14.01,2013-09-20 17:35:00,
2013-09-20 12:40:00,89.0,71.8,29.88,SSE,158,0.0,2.0,57,0.00,,---,0.00,VWS V14.01,2013-09-20 17:40:00,
2013-09-20 12:45:00,89.7,71.9,29.88,SSE,158,0.0,0.0,56,0.00,,---,0.00,VWS V14.01,2013-09-20 17:45:00,
2013-09-20 12:50:00,89.5,70.1,29.88,SE,135,4.0,4.0,53,0.00,,---,0.00,VWS V14.01,2013-09-20 17:50:00,
2013-09-20 12:55:00,89.2,69.2,29.85,SSE,158,2.0,4.3,52,0.00,,---,0.00,VWS V14.01,2013-09-20 17:55:00,
2013-09-20 13:00:00,89.0,70.2,29.85,ESE,112,2.7,2.9,54,0.00,,---,0.00,VWS V14.01,2013-09-20 18:00:00,
2013-09-20 13:05:00,88.6,69.9,29.85,ESE,112,0.0,2.5,54,0.00,,---,0.00,VWS V14.01,2013-09-20 18:05:00,
2013-09-20 13:10:00,88.3,70.1,29.85,SSE,158,2.2,2.2,55,0.00,,---,0.00,VWS V14.01,2013-09-20 18:10:00,
2013-09-20 13:15:00,88.1,69.9,29.85,ENE,68,2.2,2.5,55,0.00,,---,0.00,VWS V14.01,2013-09-20 18:15:00,
2013-09-20 13:20:00,88.3,71.1,29.85,SSW,202,2.0,3.1,57,0.00,,---,0.00,VWS V14.01,2013-09-20 18:20:00,
2013-09-20 13:25:00,88.3,70.1,29.85,SSE,158,3.4,3.4,55,0.00,,---,0.00,VWS V14.01,2013-09-20 18:25:00,
2013-09-20 13:30:00,88.1,69.9,29.85,SSW,202,1.1,1.1,55,0.00,,---,0.00,VWS V14.01,2013-09-20 18:30:00,
2013-09-20 13:35:00,87.7,69.6,29.85,SE,135,1.6,3.6,55,0.00,,---,0.00,VWS V14.01,2013-09-20 18:35:00,
2013-09-20 13:40:00,87.5,68.9,29.82,SSE,158,0.0,2.9,54,0.00,,---,0.00,VWS V14.01,2013-09-20 18:40:00,
2013-09-20 13:45:00,87.9,70.3,29.82,SSE,158,4.0,4.0,56,0.00,,---,0.00,VWS V14.01,2013-09-20 18:45:00,
2013-09-20 13:50:00,87.9,70.3,29.82,ESE,112,1.3,1.3,56,0.00,,---,0.00,VWS V14.01,2013-09-20 18:50:00,
2013-09-20 13:55:00,87.5,70.4,29.82,SSW,202,1.1,2.5,57,0.00,,---,0.00,VWS V14.01,2013-09-20 18:55:00,
2013-09-20 14:00:00,87.2,69.6,29.82,SW,225,1.6,2.5,56,0.00,,---,0.00,VWS V14.01,2013-09-20 19:00:00,
2013-09-20 14:05:00,85.7,70.3,29.82,SSW,202,0.0,2.0,60,0.00,,---,0.00,VWS V14.01,2013-09-20 19:05:00,
2013-09-20 14:10:00,83.8,69.8,29.82,NE,45,0.0,0.0,63,0.04,,---,0.04,VWS V14.01,2013-09-20 19:10:00,
2013-09-20 14:15:00,82.1,71.0,29.82,NW,315,2.7,2.7,69,0.08,,---,0.08,VWS V14.01,2013-09-20 19:15:00,
2013-09-20 14:20:00,81.4,71.9,29.82,NNW,338,1.3,2.0,73,0.12,,---,0.12,VWS V14.01,2013-09-20 19:20:00,
2013-09-20 14:25:00,81.4,72.7,29.82,NNE,22,0.0,0.0,75,0.12,,---,0.12,VWS V14.01,2013-09-20 19:25:00,
2013-09-20 14:30:00,81.1,73.2,29.82,NNW,338,0.0,0.0,77,0.12,,---,0.12,VWS V14.01,2013-09-20 19:30:00,
2013-09-20 14:35:00,81.1,75.4,29.82,North,0,1.1,1.1,83,0.12,,---,0.12,VWS V14.01,2013-09-20 19:35:00,
2013-09-20 14:41:00,81.8,75.8,29.79,NNW,338,0.0,0.0,82,0.12,,---,0.12,VWS V14.01,2013-09-20 19:41:00,
2013-09-20 14:46:00,82.5,76.1,29.79,NNE,22,0.0,0.0,81,0.12,,---,0.12,VWS V14.01,2013-09-20 19:46:00,
2013-09-20 14:51:00,83.2,77.9,29.79,NE,45,1.3,2.0,84,0.12,,---,0.12,VWS V14.01,2013-09-20 19:51:00,
2013-09-20 14:56:00,83.6,78.9,29.79,NE,45,1.1,1.3,86,0.12,,---,0.12,VWS V14.01,2013-09-20 19:56:00,
2013-09-20 15:01:00,83.9,78.9,29.79,West,270,0.0,0.0,85,0.12,,---,0.12,VWS V14.01,2013-09-20 20:01:00,
2013-09-20 15:06:00,84.3,79.3,29.79,ENE,68,2.7,2.7,85,0.12,,---,0.12,VWS V14.01,2013-09-20 20:06:00,
2013-09-20 15:11:00,84.5,79.5,29.79,ESE,112,2.5,2.5,85,0.08,,---,0.12,VWS V14.01,2013-09-20 20:11:00,
2013-09-20 15:16:00,84.7,77.1,29.79,SW,225,0.0,0.0,78,0.04,,---,0.12,VWS V14.01,2013-09-20 20:16:00,
2013-09-20 15:21:00,84.7,77.1,29.79,SSW,202,0.0,0.0,78,0.00,,---,0.12,VWS V14.01,2013-09-20 20:21:00,
2013-09-20 15:26:00,84.3,76.7,29.79,SSW,202,0.0,0.0,78,0.00,,---,0.12,VWS V14.01,2013-09-20 20:26:00,
2013-09-20 15:31:00,84.5,76.9,29.79,ENE,68,0.0,0.0,78,0.00,,---,0.12,VWS V14.01,2013-09-20 20:31:00,
2013-09-20 15:36:00,84.5,76.9,29.79,ENE,68,0.0,0.0,78,0.00,,---,0.12,VWS V14.01,2013-09-20 20:36:00,
2013-09-20 15:41:00,84.3,76.3,29.79,ESE,112,0.0,0.0,77,0.00,,---,0.12,VWS V14.01,2013-09-20 20:41:00,
2013-09-20 15:46:00,84.1,76.5,29.79,SSE,158,0.0,0.0,78,0.00,,---,0.12,VWS V14.01,2013-09-20 20:46:00,
2013-09-20 15:51:00,83.8,76.2,29.79,SE,135,0.0,0.0,78,0.00,,---,0.12,VWS V14.01,2013-09-20 20:51:00,
2013-09-20 15:56:00,83.4,75.8,29.76,SSE,158,0.0,0.0,78,0.00,,---,0.12,VWS V14.01,2013-09-20 20:56:00,
2013-09-20 16:01:00,83.2,75.3,29.76,South,180,0.0,0.0,77,0.00,,---,0.12,VWS V14.01,2013-09-20 21:01:00,
2013-09-20 16:06:00,83.0,75.1,29.76,ESE,112,0.0,0.0,77,0.00,,---,0.12,VWS V14.01,2013-09-20 21:06:00,
2013-09-20 16:11:00,83.0,75.5,29.76,ESE,112,0.0,0.0,78,0.00,,---,0.12,VWS V14.01,2013-09-20 21:11:00,
2013-09-20 16:16:00,82.9,75.3,29.76,ESE,112,0.0,0.0,78,0.00,,---,0.12,VWS V14.01,2013-09-20 21:16:00,
2013-09-20 16:21:00,82.5,75.3,29.76,SSW,202,0.0,1.1,79,0.00,,---,0.12,VWS V14.01,2013-09-20 21:21:00,
2013-09-20 16:26:00,82.3,75.2,29.79,WNW,292,0.0,0.0,79,0.00,,---,0.12,VWS V14.01,2013-09-20 21:26:00,
2013-09-20 16:31:00,82.3,73.6,29.79,NW,315,1.1,1.1,75,0.00,,---,0.12,VWS V14.01,2013-09-20 21:31:00,
2013-09-20 16:36:00,82.1,73.4,29.79,SSE,158,0.0,0.0,75,0.00,,---,0.12,VWS V14.01,2013-09-20 21:36:00,
2013-09-20 16:41:00,81.8,73.9,29.76,ESE,112,0.0,0.0,77,0.00,,---,0.12,VWS V14.01,2013-09-20 21:41:00,
2013-09-20 16:46:00,81.1,73.9,29.76,ESE,112,0.0,1.6,79,0.00,,---,0.12,VWS V14.01,2013-09-20 21:46:00,
2013-09-20 16:51:00,80.7,73.6,29.76,SE,135,0.0,0.0,79,0.00,,---,0.12,VWS V14.01,2013-09-20 21:51:00,
2013-09-20 16:56:00,80.7,74.0,29.76,ESE,112,1.6,1.6,80,0.00,,---,0.12,VWS V14.01,2013-09-20 21:56:00,
2013-09-20 17:01:00,80.7,74.0,29.76,ENE,68,0.0,0.0,80,0.00,,---,0.12,VWS V14.01,2013-09-20 22:01:00,
2013-09-20 17:06:00,80.5,73.8,29.76,North,0,0.0,0.0,80,0.00,,---,0.12,VWS V14.01,2013-09-20 22:06:00,
2013-09-20 17:11:00,80.3,74.0,29.76,North,0,0.0,0.0,81,0.00,,---,0.12,VWS V14.01,2013-09-20 22:11:00,
2013-09-20 17:17:00,80.2,74.2,29.76,NE,45,0.0,0.0,82,0.00,,---,0.12,VWS V14.01,2013-09-20 22:17:00,
2013-09-20 17:22:00,80.0,73.3,29.76,NE,45,0.0,0.0,80,0.00,,---,0.12,VWS V14.01,2013-09-20 22:22:00,
2013-09-20 17:27:00,79.6,72.9,29.76,ENE,68,0.0,0.0,80,0.00,,---,0.12,VWS V14.01,2013-09-20 22:27:00,
2013-09-20 17:32:00,79.3,73.7,29.76,North,0,0.0,0.0,83,0.00,,---,0.12,VWS V14.01,2013-09-20 22:32:00,
2013-09-20 17:37:00,78.9,73.3,29.76,North,0,0.0,0.0,83,0.00,,---,0.12,VWS V14.01,2013-09-20 22:37:00,
2013-09-20 17:42:00,78.5,73.3,29.76,WSW,248,1.6,2.0,84,0.00,,---,0.12,VWS V14.01,2013-09-20 22:42:00,
2013-09-20 17:47:00,78.2,74.3,29.76,NW,315,1.6,1.6,88,0.05,,---,0.17,VWS V14.01,2013-09-20 22:47:00,
2013-09-20 17:52:00,78.0,74.2,29.76,NW,315,1.6,1.6,88,0.05,,---,0.17,VWS V14.01,2013-09-20 22:52:00,
2013-09-20 17:57:00,77.6,74.1,29.79,NW,315,1.6,2.2,89,0.08,,---,0.20,VWS V14.01,2013-09-20 22:57:00,
2013-09-20 18:02:00,77.3,74.1,29.79,WNW,292,1.3,2.0,90,0.13,,---,0.25,VWS V14.01,2013-09-20 23:02:00,
2013-09-20 18:07:00,76.7,73.6,29.79,NNW,338,3.4,3.4,90,0.13,,---,0.25,VWS V14.01,2013-09-20 23:07:00,
2013-09-20 18:12:00,76.0,71.5,29.79,WNW,292,2.7,2.7,86,0.17,,---,0.29,VWS V14.01,2013-09-20 23:12:00,
2013-09-20 18:17:00,75.3,71.2,29.79,WNW,292,2.7,3.1,87,0.17,,---,0.29,VWS V14.01,2013-09-20 23:17:00,
2013-09-20 18:22:00,74.8,70.6,29.79,NNW,338,0.9,1.6,87,0.21,,---,0.33,VWS V14.01,2013-09-20 23:22:00,
2013-09-20 18:27:00,74.4,70.3,29.79,WNW,292,0.9,1.3,87,0.25,,---,0.37,VWS V14.01,2013-09-20 23:27:00,
2013-09-20 18:32:00,74.0,70.6,29.79,NNW,338,0.0,1.1,89,0.29,,---,0.41,VWS V14.01,2013-09-20 23:32:00,
2013-09-20 18:37:00,73.9,70.4,29.79,NW,315,0.0,1.1,89,0.29,,---,0.41,VWS V14.01,2013-09-20 23:37:00,
2013-09-20 18:42:00,73.9,70.8,29.79,NW,315,0.0,0.0,90,0.33,,---,0.45,VWS V14.01,2013-09-20 23:42:00,
2013-09-20 18:47:00,73.7,70.6,29.79,NNE,22,0.0,0.0,90,0.28,,---,0.45,VWS V14.01,2013-09-20 23:47:00,
2013-09-20 18:52:00,73.5,70.7,29.79,NNW,338,0.0,0.0,91,0.28,,---,0.45,VWS V14.01,2013-09-20 23:52:00,
2013-09-20 18:57:00,73.5,70.7,29.82,North,0,0.0,0.0,91,0.20,,---,0.45,VWS V14.01,2013-09-20 23:57:00,
2013-09-20 19:02:00,73.5,71.0,29.82,NNE,22,0.0,0.0,92,0.20,,---,0.45,VWS V14.01,2013-09-21 00:02:00,
2013-09-20 19:07:00,73.5,70.7,29.82,NNE,22,0.0,0.0,91,0.16,,---,0.45,VWS V14.01,2013-09-21 00:07:00,
2013-09-20 19:12:00,73.5,71.0,29.79,NNE,22,0.0,0.0,92,0.16,,---,0.45,VWS V14.01,2013-09-21 00:12:00,
2013-09-20 19:17:00,73.5,71.4,29.79,NNE,22,0.0,0.0,93,0.16,,---,0.45,VWS V14.01,2013-09-21 00:17:00,
2013-09-20 19:22:00,73.5,71.4,29.79,NNE,22,0.0,0.0,93,0.12,,---,0.45,VWS V14.01,2013-09-21 00:22:00,
2013-09-20 19:27:00,73.5,71.7,29.79,North,0,0.0,0.0,94,0.13,,---,0.50,VWS V14.01,2013-09-21 00:27:00,
2013-09-20 19:32:00,73.5,71.7,29.79,North,0,0.0,0.0,94,0.09,,---,0.50,VWS V14.01,2013-09-21 00:32:00,
2013-09-20 19:37:00,73.5,71.7,29.79,North,0,0.0,0.0,94,0.09,,---,0.50,VWS V14.01,2013-09-21 00:37:00,
2013-09-20 19:42:00,73.5,71.7,29.79,NNE,22,0.0,0.0,94,0.05,,---,0.50,VWS V14.01,2013-09-21 00:42:00,
2013-09-20 19:47:00,73.5,71.7,29.79,NNE,22,0.0,0.0,94,0.05,,---,0.50,VWS V14.01,2013-09-21 00:47:00,
2013-09-20 19:52:00,73.7,71.8,29.79,NNE,22,0.0,0.0,94,0.05,,---,0.50,VWS V14.01,2013-09-21 00:52:00,
2013-09-20 19:57:00,73.5,71.7,29.82,North,0,0.0,0.0,94,0.09,,---,0.54,VWS V14.01,2013-09-21 00:57:00,
2013-09-20 20:02:00,73.5,71.7,29.82,North,0,0.0,0.0,94,0.09,,---,0.54,VWS V14.01,2013-09-21 01:02:00,
2013-09-20 20:07:00,73.7,71.8,29.82,NNW,338,0.0,0.0,94,0.09,,---,0.54,VWS V14.01,2013-09-21 01:07:00,
2013-09-20 20:12:00,73.7,72.2,29.82,SSE,158,1.6,1.6,95,0.13,,---,0.58,VWS V14.01,2013-09-21 01:12:00,
2013-09-20 20:17:00,73.7,72.2,29.82,WNW,292,0.9,0.9,95,0.17,,---,0.00,VWS V14.01,2013-09-21 01:17:00,
2013-09-20 20:22:00,73.7,72.5,29.82,WNW,292,3.1,3.8,96,0.17,,---,0.62,VWS V14.01,2013-09-21 01:22:00,
2013-09-20 20:27:00,73.7,72.5,29.82,NNW,338,1.6,1.6,96,0.16,,---,0.66,VWS V14.01,2013-09-21 01:27:00,
2013-09-20 20:32:00,73.5,72.3,29.82,NW,315,1.6,2.0,96,0.16,,---,0.66,VWS V14.01,2013-09-21 01:32:00,
2013-09-20 20:37:00,73.5,72.3,29.82,ENE,68,0.0,0.0,96,0.20,,---,0.70,VWS V14.01,2013-09-21 01:37:00,
2013-09-20 20:42:00,73.5,72.3,29.82,NNW,338,0.0,0.0,96,0.24,,---,0.74,VWS V14.01,2013-09-21 01:42:00,
2013-09-20 20:47:00,73.5,72.3,29.82,North,0,0.0,0.0,96,0.24,,---,0.74,VWS V14.01,2013-09-21 01:47:00,
2013-09-20 20:52:00,73.7,72.5,29.82,North,0,0.0,0.0,96,0.24,,---,0.74,VWS V14.01,2013-09-21 01:52:00,
2013-09-20 20:57:00,73.7,72.5,29.82,NNE,22,0.0,0.0,96,0.20,,---,0.74,VWS V14.01,2013-09-21 01:57:00,
2013-09-20 21:02:00,73.7,72.5,29.82,NNE,22,0.0,0.0,96,0.20,,---,0.74,VWS V14.01,2013-09-21 02:02:00,
2013-09-20 21:07:00,73.7,72.5,29.82,ENE,68,0.9,1.3,96,0.20,,---,0.74,VWS V14.01,2013-09-21 02:07:00,
2013-09-20 21:12:00,73.7,72.5,29.82,ENE,68,0.0,0.0,96,0.16,,---,0.74,VWS V14.01,2013-09-21 02:12:00,
2013-09-20 21:17:00,73.7,72.5,29.82,ENE,68,0.0,0.0,96,0.12,,---,0.74,VWS V14.01,2013-09-21 02:17:00,
2013-09-20 21:22:00,73.7,72.5,29.82,NNW,338,0.0,0.0,96,0.12,,---,0.74,VWS V14.01,2013-09-21 02:22:00,
2013-09-20 21:27:00,73.7,72.5,29.82,NNW,338,0.0,0.0,96,0.08,,---,0.74,VWS V14.01,2013-09-21 02:27:00,
2013-09-20 21:32:00,73.7,72.5,29.82,NNW,338,0.0,0.0,96,0.13,,---,0.79,VWS V14.01,2013-09-21 02:32:00,
2013-09-20 21:37:00,73.7,72.5,29.82,NNW,338,0.0,0.0,96,0.13,,---,0.83,VWS V14.01,2013-09-21 02:37:00,
2013-09-20 21:42:00,73.7,72.5,29.82,NNW,338,0.0,0.0,96,0.09,,---,0.83,VWS V14.01,2013-09-21 02:42:00,
2013-09-20 21:47:00,73.7,72.5,29.82,NNE,22,0.0,0.0,96,0.09,,---,0.83,VWS V14.01,2013-09-21 02:47:00,
2013-09-20 21:52:00,73.7,72.5,29.82,NNE,22,0.0,0.0,96,0.09,,---,0.83,VWS V14.01,2013-09-21 02:52:00,
2013-09-20 21:57:00,73.7,72.5,29.79,North,0,0.0,0.0,96,0.09,,---,0.83,VWS V14.01,2013-09-21 02:57:00,
2013-09-20 22:02:00,73.7,72.5,29.79,North,0,0.0,0.0,96,0.09,,---,0.83,VWS V14.01,2013-09-21 03:02:00,
2013-09-20 22:07:00,73.7,72.5,29.79,NNE,22,0.0,0.0,96,0.09,,---,0.83,VWS V14.01,2013-09-21 03:07:00,
2013-09-20 22:12:00,73.7,72.5,29.79,NNE,22,0.0,0.0,96,0.09,,---,0.83,VWS V14.01,2013-09-21 03:12:00,
2013-09-20 22:17:00,73.7,72.5,29.79,NNE,22,0.0,0.0,96,0.09,,---,0.83,VWS V14.01,2013-09-21 03:17:00,
2013-09-20 22:22:00,73.7,72.5,29.79,NNE,22,0.0,0.0,96,0.09,,---,0.83,VWS V14.01,2013-09-21 03:22:00,
2013-09-20 22:27:00,73.7,72.5,29.79,ENE,68,0.0,0.0,96,0.09,,---,0.83,VWS V14.01,2013-09-21 03:27:00,
2013-09-20 22:32:00,73.7,72.8,29.79,NE,45,0.0,0.0,97,0.04,,---,0.83,VWS V14.01,2013-09-21 03:32:00,
2013-09-20 22:37:00,73.7,72.5,29.79,NNE,22,0.0,0.0,96,0.00,,---,0.83,VWS V14.01,2013-09-21 03:37:00,
2013-09-20 22:42:00,73.9,73.0,29.79,NNE,22,0.0,0.0,97,0.00,,---,0.83,VWS V14.01,2013-09-21 03:42:00,
2013-09-20 22:47:00,73.9,73.0,29.79,ENE,68,0.0,0.0,97,0.04,,---,0.87,VWS V14.01,2013-09-21 03:47:00,
2013-09-20 22:52:00,73.9,73.0,29.79,ENE,68,0.0,0.0,97,0.04,,---,0.87,VWS V14.01,2013-09-21 03:52:00,
2013-09-20 22:57:00,73.9,73.0,29.79,ENE,68,0.0,0.0,97,0.04,,---,0.87,VWS V14.01,2013-09-21 03:57:00,
2013-09-20 23:01:00,73.9,73.0,29.79,NNW,338,0.0,0.0,97,0.04,,---,0.87,VWS V14.01,2013-09-21 04:01:00,
2013-09-20 23:06:00,73.9,73.0,29.79,NNW,338,0.0,0.0,97,0.04,,---,0.87,VWS V14.01,2013-09-21 04:06:00,
2013-09-20 23:11:00,73.9,73.0,29.79,NNW,338,0.0,0.0,97,0.04,,---,0.87,VWS V14.01,2013-09-21 04:11:00,
2013-09-20 23:16:00,73.9,73.0,29.79,ESE,112,0.0,0.0,97,0.08,,---,0.91,VWS V14.01,2013-09-21 04:16:00,
2013-09-20 23:21:00,73.9,73.0,29.79,ESE,112,1.3,1.3,97,0.16,,---,0.99,VWS V14.01,2013-09-21 04:21:00,
2013-09-20 23:27:00,73.9,73.0,29.79,ENE,68,0.0,0.0,97,0.21,,---,1.04,VWS V14.01,2013-09-21 04:27:00,
2013-09-20 23:32:00,73.9,73.0,29.79,NE,45,1.3,1.6,97,0.24,,---,1.07,VWS V14.01,2013-09-21 04:32:00,
2013-09-20 23:37:00,74.0,73.1,29.79,NE,45,0.0,0.0,97,0.33,,---,1.16,VWS V14.01,2013-09-21 04:37:00,
2013-09-20 23:42:00,74.0,73.1,29.76,North,0,0.0,0.0,97,0.33,,---,1.16,VWS V14.01,2013-09-21 04:42:00,
2013-09-20 23:47:00,74.0,73.1,29.76,North,0,0.0,0.0,97,0.29,,---,1.16,VWS V14.01,2013-09-21 04:47:00,
2013-09-20 23:52:00,74.0,73.1,29.76,WSW,248,0.0,0.0,97,0.33,,---,1.20,VWS V14.01,2013-09-21 04:52:00,
2013-09-20 23:57:00,74.2,73.3,29.76,North,0,0.0,0.0,97,0.33,,---,1.20,VWS V14.01,2013-09-21 04:57:00,